Starlink 2699

operational
NORAD ID: 48433 Int'l Des: 2021-040 Owner: SPXS Country: US Constellation: starlink
LEOCIRCULARSTARLINK_TYPE

Starlink 2699について

説明を読み込み中...

リアルタイム位置

3D地球を読み込み中...

次回通過

高度履歴

Altitude vs Time

uPlot chart will show altitude changes over time

軌道要素

1 48433U 21040F 25299.77776273 .00002841 00000-0 20953-3 0 9999
2 48433 53.0539 33.0520 0001432 77.6440 282.4709 15.06396426246859
Epoch: Oct 26, 2025 • Age: 11 hours

現在のステータス

高度 564.8 km
速度 7.58 km/s
衛星直下点 -48.68°S, 145.67°W
打ち上げ日 May 9, 2021
運用期間 4.4 years
タイプ internet

技術仕様

分類 Payload
質量 260.00 kg
乾燥質量 248.00 kg
総質量 260.00 kg
長さ 0.20 m
直径 2.80 m
スパン 9.00 m
形状 Box + pan
製造者 SPXS
バスタイプ Starlink
フェーズステータス In Orbit
所有者/国 SPXS/US

大規模コンステレーション

Loading constellations...